Location: Antichan
(42.9728°N, 0.6667°E)
Time: 17:00:06
(UTC+00:00)

Lacrosse 5 - Pass Details

Date: 15 August 2020
Orbit: 717 x 720 km, 57.0° (Epoch: 18 September)

Event Time Altitude Azimuth Distance (km) Brightness Sun altitude
Rises 22:15:23 0° 300° (WNW) 3,126 6.0 -28.3°
Reaches altitude 10° 22:18:27 10° 281° (WNW) 2,202 4.8 -28.6°
Enters shadow 22:21:01 17° 251° (WSW) 1,754 3.9 -28.8°
